Havre, MT

5:00 PM MDT on October 16, 2017 (GMT -0600)
Havre City-County

Weather History for KHVR - July, 2013

Change the Weather History Date:

Tuesday, July 9, 2013

  Actual Average Record
Temperature  
Mean Temperature 67 °F 68 °F  
Max Temperature 78 °F 83 °F 102 °F (2001)
Min Temperature 55 °F 53 °F 36 °F (1881)
Degree Days  
Heating Degree Days 0 1  
Month to date heating degree days 1 16  
Since 1 June heating degree days 114 149  
Since 1 July heating degree days 1 16  
Cooling Degree Days 2 4  
Month to date cooling degree days 52 32  
Year to date cooling degree days 102 91  
Since 1 June cooling degree days 95 80  
Growing Degree Days 16 (Base 50)    
Moisture  
Dew Point 53 °F    
Average Humidity 67    
Maximum Humidity 93    
Minimum Humidity 40    
Precipitation  
Precipitation 0.00 in 0.06 in 0.81 in (1909)
Month to date precipitation 1.29 0.60  
Year to date precipitation 12.50 6.52  
Snow  
Snow 0.00 in 0.00 in 0.00 in (1999)
Month to date snowfall 0.0 0.0  
Since 1 June snowfall 0.0 0.0  
Since 1 July snowfall 0.0 0.0  
Snow Depth 0.00 in    
Sea Level Pressure  
Sea Level Pressure 30.11 in    
Wind  
Wind Speed 6 mph (SW)    
Max Wind Speed 16 mph    
Max Gust Speed 21 mph    
Visibility 10 miles    
Events      
T = Trace of Precipitation, MM = Missing Value Source: NWS Daily Summary

Daily Weather History Graph

Daily Weather History Graph

Search for Another Location

Airport or City:

Trip Planner

Search our weather history database for the weather conditions in past years. The results will help you decide how hot, cold, wet, or windy it might be!

Date:

Astronomy

Jul. 09, 2013 Rise Set
Actual Time 5:27 AM MDT 9:20 PM MDT
Civil Twilight 4:46 AM MDT 10:01 PM MDT
Nautical Twilight 3:50 AM MDT 10:57 PM MDT
Astronomical Twilight 2:21 AM MDT 12:24 AM MDT
Moon 7:06 AM MDT (7/9) 9:45 PM MDT (7/9)
Length of Visible Light 17h 14m
Length of Day
15h 53m
New Moon, 2% of the Moon is Illuminated
Jul 9
New Moon
Jul 15
First Quarter
Jul 22
Full
Jul 29
Last Quarter
Aug 6
New

Hourly Weather History & Observations

Time (MDT) Temp. Dew Point Humidity Pressure Visibility Wind Dir Wind Speed Gust Speed Precip Events Conditions
12:26 AM 53.6 °F 51.8 °F 94% 30.08 in 10.0 mi SW 12.7 mph - N/A   Mostly Cloudy
12:53 AM 55.0 °F 52.0 °F 89% 30.07 in 10.0 mi SW 12.7 mph - N/A   Overcast
1:30 AM 55.4 °F 51.8 °F 88% 30.06 in 10.0 mi WSW 5.8 mph - N/A   Overcast
1:53 AM 55.9 °F 52.0 °F 87% 30.04 in 10.0 mi SW 4.6 mph - N/A   Scattered Clouds
2:25 AM 55.4 °F 51.8 °F 88% 30.07 in 10.0 mi WSW 11.5 mph - N/A   Mostly Cloudy
2:53 AM 55.9 °F 52.0 °F 87% 30.07 in 10.0 mi SW 16.1 mph - N/A   Overcast
3:53 AM 55.9 °F 53.1 °F 90% 30.06 in 10.0 mi SW 11.5 mph - N/A   Overcast
4:20 AM 55.4 °F 53.6 °F 94% 30.10 in 10.0 mi WSW 11.5 mph - N/A   Overcast
4:53 AM 57.0 °F 54.0 °F 89% 30.09 in 10.0 mi SW 8.1 mph - N/A   Overcast
5:41 AM 55.4 °F 53.6 °F 94% 30.12 in 10.0 mi SSW 10.4 mph - N/A   Overcast
5:53 AM 55.9 °F 54.0 °F 93% 30.10 in 10.0 mi SW 8.1 mph - N/A   Overcast
6:53 AM 57.0 °F 54.0 °F 89% 30.12 in 10.0 mi WSW 8.1 mph - N/A   Overcast
7:20 AM 57.2 °F 53.6 °F 88% 30.15 in 10.0 mi WSW 6.9 mph - N/A   Overcast
7:53 AM 57.9 °F 54.0 °F 87% 30.15 in 10.0 mi WSW 5.8 mph - N/A   Mostly Cloudy
8:06 AM 59.0 °F 53.6 °F 82% 30.16 in 10.0 mi WSW 8.1 mph - N/A   Mostly Cloudy
8:53 AM 60.1 °F 55.0 °F 83% 30.16 in 10.0 mi SW 6.9 mph - N/A   Mostly Cloudy
9:53 AM 62.1 °F 55.0 °F 78% 30.17 in 10.0 mi SW 8.1 mph - N/A   Mostly Cloudy
10:24 AM 62.6 °F 55.4 °F 77% 30.18 in 10.0 mi SW 8.1 mph - N/A   Mostly Cloudy
10:38 AM 64.4 °F 55.4 °F 73% 30.18 in 10.0 mi WSW 6.9 mph - N/A   Scattered Clouds
10:53 AM 64.9 °F 55.9 °F 73% 30.17 in 10.0 mi SSW 5.8 mph - N/A   Scattered Clouds
11:53 AM 70.0 °F 55.0 °F 59% 30.16 in 10.0 mi SW 5.8 mph - N/A   Partly Cloudy
12:53 PM 69.1 °F 53.1 °F 57% 30.15 in 10.0 mi Variable 3.5 mph - N/A   Mostly Cloudy
1:53 PM 75.0 °F 54.0 °F 48% 30.14 in 10.0 mi Calm Calm - N/A   Mostly Cloudy
2:53 PM 75.9 °F 52.0 °F 43% 30.12 in 10.0 mi Variable 4.6 mph - N/A   Clear
3:53 PM 75.9 °F 53.1 °F 45% 30.11 in 10.0 mi SSE 5.8 mph - N/A   Clear
4:53 PM 77.0 °F 51.1 °F 40% 30.10 in 10.0 mi Variable 3.5 mph - N/A   Clear
5:53 PM 77.0 °F 51.1 °F 40% 30.08 in 10.0 mi Calm Calm - N/A   Partly Cloudy
6:53 PM 75.9 °F 52.0 °F 43% 30.07 in 10.0 mi Calm Calm - N/A   Clear
7:53 PM 75.9 °F 54.0 °F 46% 30.05 in 10.0 mi ESE 3.5 mph - N/A   Clear
8:53 PM 71.1 °F 57.0 °F 61% 30.05 in 10.0 mi SSE 4.6 mph - N/A   Clear
9:53 PM 62.1 °F 55.9 °F 80% 30.06 in 10.0 mi South 9.2 mph - N/A   Clear
10:53 PM 66.0 °F 53.1 °F 63% 30.06 in 10.0 mi SE 8.1 mph - N/A   Clear
11:53 PM 61.0 °F 53.1 °F 75% 30.05 in 10.0 mi Calm Calm - N/A   Clear